W8LMG Weather Reports


time (UTC)temp
F
wind
direction
speed
knots
gust
knots
rain 1hr
in
rain 24hr
in
rain mn
in
humidity
%
barometer
mb
20260504004620 46 207 0.0 0.0 0.00 0.00 0.00 56 1015.8
20260504004117 46 206 0.0 0.0 0.00 0.00 0.00 54 1016.0
20260504003613 47 206 0.0 0.0 0.00 0.00 0.00 59 1015.6
20260504003110 47 207 0.0 0.0 0.00 0.00 0.00 55 1015.5
20260504002606 47 206 0.0 0.0 0.00 0.00 0.00 57 1015.6
20260504002104 48 207 0.0 0.0 0.00 0.00 0.00 53 1015.5
20260504001602 48 207 0.0 0.0 0.00 0.00 0.00 50 1015.5
20260504001057 48 207 0.0 0.0 0.00 0.00 0.00 53 1015.7
20260504000555 49 206 0.0 0.0 0.00 0.00 0.00 49 1015.6
20260504000052 50 206 0.0 0.0 0.00 0.00 0.00 48 1015.5
20260503235550 50 207 0.9 0.9 0.00 0.00 0.00 47 1015.6
20260503235047 50 207 0.0 0.0 0.00 0.00 0.00 47 1015.5
20260503234545 51 207 0.0 0.0 0.00 0.00 0.00 46 1015.7
20260503234043 51 207 0.0 0.0 0.00 0.00 0.00 46 1015.5
20260503233539 52 207 0.0 0.9 0.00 0.00 0.00 44 1015.5
20260503233035 52 206 0.0 0.9 0.00 0.00 0.00 40 1015.5
20260503232532 53 207 0.0 0.0 0.00 0.00 0.00 39 1015.4
20260503232030 54 207 1.7 1.7 0.00 0.00 0.00 38 1015.5
20260503231527 54 207 0.9 0.9 0.00 0.00 0.00 36 1015.5
20260503231024 54 207 1.7 1.7 0.00 0.00 0.00 33 1015.5
20260503230520 55 207 0.0 0.0 0.00 0.00 0.00 40 1015.5
20260503230018 54 207 1.7 1.7 0.00 0.00 0.00 37 1015.5
20260503225515 56 207 0.0 0.0 0.00 0.00 0.00 36 1015.6
20260503225010 57 207 0.0 0.0 0.00 0.00 0.00 34 1015.4
20260503224508 58 207 1.7 1.7 0.00 0.00 0.00 30 1015.5
20260503224005 58 207 2.6 3.5 0.00 0.00 0.00 28 1015.6
20260503223503 58 207 0.9 1.7 0.00 0.00 0.00 33 1015.4
20260503222958 59 207 0.0 0.9 0.00 0.00 0.00 28 1015.4
20260503222457 59 207 1.7 1.7 0.00 0.00 0.00 31 1015.4
20260503221954 59 207 0.9 0.9 0.00 0.00 0.00 29 1015.5
20260503221453 59 207 0.9 0.9 0.00 0.00 0.00 28 1015.5
20260503220949 59 207 1.7 1.7 0.00 0.00 0.00 28 1015.5
20260503220445 59 207 0.0 0.9 0.00 0.00 0.00 30 1015.5
20260503215943 59 207 1.7 2.6 0.00 0.00 0.00 28 1015.5
20260503215439 57 207 3.5 3.5 0.00 0.00 0.00 32 1015.3
20260503214937 58 207 1.7 1.7 0.00 0.00 0.00 29 1015.5
20260503214435 58 207 3.5 3.5 0.00 0.00 0.00 30 1015.5
20260503213932 58 208 2.6 2.6 0.00 0.00 0.00 31 1015.4
20260503213430 59 207 1.7 1.7 0.00 0.00 0.00 33 1015.2
20260503212926 58 208 1.7 2.6 0.00 0.00 0.00 33 1015.4
20260503212424 60 207 1.7 1.7 0.00 0.00 0.00 27 1015.6
20260503211921 59 207 0.0 0.0 0.00 0.00 0.00 26 1015.6
20260503211418 59 207 0.9 0.9 0.00 0.00 0.00 30 1015.4
20260503210913 59 208 0.9 1.7 0.00 0.00 0.00 32 1015.4
20260503210410 58 208 2.6 3.5 0.00 0.00 0.00 30 1015.5
20260503205910 58 208 1.7 1.7 0.00 0.00 0.00 33 1015.6
20260503205408 57 208 4.3 5.2 0.00 0.00 0.00 26 1015.6
20260503204904 58 208 2.6 2.6 0.00 0.00 0.00 27 1015.6
20260503204401 59 207 2.6 2.6 0.00 0.00 0.00 26 1015.8
20260503203858 59 207 4.3 5.2 0.00 0.00 0.00 26 1015.6
20260503203356 58 207 5.2 6.1 0.00 0.00 0.00 27 1015.8
20260503202852 59 208 1.7 1.7 0.00 0.00 0.00 29 1015.9
20260503202351 58 207 1.7 2.6 0.00 0.00 0.00 34 1015.6
20260503201849 57 208 0.9 1.7 0.00 0.00 0.00 32 1015.8
20260503201345 58 208 0.9 1.7 0.00 0.00 0.00 27 1015.9
20260503200843 57 207 2.6 2.6 0.00 0.00 0.00 29 1016.1
20260503200338 57 207 3.5 5.2 0.00 0.00 0.00 27 1016.2
20260503195836 57 207 1.7 1.7 0.00 0.00 0.00 27 1016.1
20260503195332 59 207 1.7 2.6 0.00 0.00 0.00 27 1016.4
20260503194830 57 207 1.7 1.7 0.00 0.00 0.00 32 1016.5
20260503194326 57 208 1.7 1.7 0.00 0.00 0.00 29 1016.5
20260503193822 58 207 1.7 2.6 0.00 0.00 0.00 28 1016.8
20260503193318 57 208 1.7 2.6 0.00 0.00 0.00 31 1016.9
20260503192814 57 207 0.9 0.9 0.00 0.00 0.00 28 1016.7
20260503192309 57 208 1.7 3.5 0.00 0.00 0.00 29 1016.8
20260503191806 58 208 3.5 6.1 0.00 0.00 0.00 31 1016.9
20260503191303 57 208 2.6 2.6 0.00 0.00 0.00 29 1016.9
20260503190800 57 208 0.9 1.7 0.00 0.00 0.00 28 1016.8
20260503190257 57 208 1.7 2.6 0.00 0.00 0.00 28 1016.8
20260503185754 57 208 0.0 0.9 0.00 0.00 0.00 36 1016.9
20260503185250 57 207 1.7 1.7 0.00 0.00 0.00 27 1017.0
20260503184744 57 208 3.5 6.1 0.00 0.00 0.00 30 1017.0
20260503184241 56 208 0.0 0.0 0.00 0.00 0.00 35 1016.8
20260503183737 57 208 2.6 3.5 0.00 0.00 0.00 34 1016.9
20260503183235 56 207 1.7 1.7 0.00 0.00 0.00 28 1016.9
20260503182732 56 207 0.9 0.9 0.00 0.00 0.00 30 1017.0
20260503182231 55 208 0.0 0.0 0.00 0.00 0.00 31 1017.1
20260503181727 55 208 8.7 12.2 0.00 0.00 0.00 30 1017.3
20260503181224 55 208 3.5 3.5 0.00 0.00 0.00 30 1017.4
20260503180721 55 208 1.7 2.6 0.00 0.00 0.00 33 1017.6
20260503180219 54 208 1.7 3.5 0.00 0.00 0.00 31 1017.6
20260503175715 56 208 1.7 1.7 0.00 0.00 0.00 34 1017.6
20260503175214 55 207 0.9 1.7 0.00 0.00 0.00 32 1017.3
20260503174709 54 208 1.7 2.6 0.00 0.00 0.00 37 1017.6
20260503174207 55 207 4.3 6.1 0.00 0.00 0.00 29 1017.7
20260503173702 54 207 0.0 0.0 0.00 0.00 0.00 31 1017.5
20260503173158 53 207 1.7 2.6 0.00 0.00 0.00 40 1017.7
20260503172655 53 207 0.9 1.7 0.00 0.00 0.00 38 1017.6
20260503172152 52 207 5.2 6.1 0.00 0.00 0.00 34 1017.6
20260503171649 53 207 3.5 3.5 0.00 0.00 0.00 34 1017.8
20260503171146 53 207 1.7 1.7 0.00 0.00 0.00 33 1017.6
20260503170643 52 207 1.7 2.6 0.00 0.00 0.00 33 1017.8
20260503170140 51 207 0.9 1.7 0.00 0.00 0.00 39 1017.7
20260503160107 49 207 2.6 2.6 0.00 0.00 0.00 38 1018.5
20260503150537 46 207 7.0 8.7 0.00 0.00 0.00 43 1019.1
20260503130927 41 207 2.6 3.5 0.00 0.00 0.00 56 1018.7
20260503130424 41 207 3.5 5.2 0.00 0.00 0.00 57 1018.6
20260503110326 28 206 0.0 0.0 0.00 0.00 0.00 94 1017.7
20260503100252 29 207 0.0 0.0 0.00 0.00 0.00 89 1017.2
20260503090211 32 207 0.0 0.0 0.00 0.00 0.00 85 1016.1
20260503081144 36 206 0.0 0.9 0.00 0.00 0.00 66 1016.1
20260503080640 37 206 0.0 0.0 0.00 0.00 0.00 67 1016.1
20260503080138 37 206 0.9 1.7 0.00 0.00 0.00 67 1016.1
20260503072615 36 206 0.0 0.0 0.00 0.00 0.00 71 1016.1
20260503072112 36 206 0.0 0.0 0.00 0.00 0.00 74 1015.9
20260503071608 35 206 0.9 0.9 0.00 0.00 0.00 75 1015.9
20260503071105 34 206 0.0 0.0 0.00 0.00 0.00 82 1015.6
20260503070602 34 206 0.9 0.9 0.00 0.00 0.00 83 1015.7
20260503055020 37 206 0.0 0.0 0.00 0.00 0.00 82 1015.7
20260503054516 37 206 0.0 0.0 0.00 0.00 0.00 82 1015.8
20260503054014 37 206 0.0 0.0 0.00 0.00 0.00 81 1015.7
20260503053512 37 206 0.0 0.0 0.00 0.00 0.00 82 1015.6
20260503053009 37 206 0.0 0.0 0.00 0.00 0.00 81 1015.5
20260503052506 37 206 0.0 0.0 0.00 0.00 0.00 82 1015.5
20260503052002 36 206 0.0 0.0 0.00 0.00 0.00 82 1015.5
20260503051458 36 206 0.0 0.0 0.00 0.00 0.00 82 1015.5
20260503050955 36 206 0.0 0.0 0.00 0.00 0.00 79 1015.5
20260503050451 36 206 0.0 0.0 0.00 0.00 0.00 80 1015.7
20260503045949 36 206 0.0 0.0 0.00 0.00 0.00 81 1015.4
20260503045446 36 206 0.0 0.0 0.00 0.00 0.00 82 1015.6
20260503044943 36 206 0.0 0.0 0.00 0.00 0.00 81 1015.7
20260503044439 35 206 0.0 0.0 0.00 0.00 0.00 81 1015.5
20260503043937 36 206 0.0 0.0 0.00 0.00 0.00 80 1015.5
20260503043433 36 206 0.0 0.0 0.00 0.00 0.00 79 1015.4
20260503042930 36 206 0.0 0.0 0.00 0.00 0.00 80 1015.5
20260503042427 36 206 0.9 1.7 0.00 0.00 0.00 80 1015.3
20260503041923 37 206 0.0 0.0 0.00 0.00 0.00 79 1015.4
20260503041420 37 206 0.0 0.0 0.00 0.00 0.00 79 1015.3
20260503040917 37 206 0.9 0.9 0.00 0.00 0.00 78 1015.4
20260503040415 36 206 0.0 0.0 0.00 0.00 0.00 79 1015.5
20260503035912 37 206 0.0 0.0 0.00 0.00 0.00 79 1015.6
20260503035409 37 206 0.0 0.0 0.00 0.00 0.00 80 1015.6
20260503034906 37 206 0.0 0.0 0.00 0.00 0.00 79 1015.4
20260503034403 37 206 0.0 0.0 0.00 0.00 0.00 80 1015.5
20260503033900 37 206 0.0 0.0 0.00 0.00 0.00 79 1015.4
20260503033358 37 206 0.0 0.0 0.00 0.00 0.00 79 1015.5
20260503032856 37 206 0.0 0.0 0.00 0.00 0.00 78 1015.5
20260503032354 37 206 0.0 0.0 0.00 0.00 0.00 77 1015.4
20260503031851 38 206 0.0 0.0 0.00 0.00 0.00 75 1015.4
20260503031349 38 206 0.9 0.9 0.00 0.00 0.00 74 1015.2
20260503030845 38 206 0.0 0.0 0.00 0.00 0.00 73 1015.4
20260503030342 39 206 0.9 0.9 0.00 0.00 0.00 72 1015.4
20260503025838 39 206 0.0 0.0 0.00 0.00 0.00 72 1015.3
20260503025336 39 206 0.9 1.7 0.00 0.00 0.00 65 1015.5
20260503024833 40 206 0.0 0.0 0.00 0.00 0.00 69 1015.3
20260503024329 40 206 0.0 0.0 0.00 0.00 0.00 68 1015.4
20260503023826 41 206 0.9 1.7 0.00 0.00 0.00 67 1015.3
20260503023324 42 206 0.0 0.0 0.00 0.00 0.00 64 1015.6
20260503022820 43 206 0.0 0.9 0.00 0.00 0.00 59 1015.5
20260503022320 43 206 0.9 0.9 0.00 0.00 0.00 57 1015.5
20260503021817 42 206 0.0 0.0 0.00 0.00 0.00 63 1015.4
20260503021313 42 206 0.0 0.0 0.00 0.00 0.00 68 1015.4
20260503020811 41 206 0.0 0.0 0.00 0.00 0.00 66 1015.5
20260503020309 42 206 0.0 0.0 0.00 0.00 0.00 68 1015.6
20260503015804 42 206 0.0 0.0 0.00 0.00 0.00 68 1015.2
20260503015305 41 206 0.0 0.9 0.00 0.00 0.00 69 1015.3
20260503014757 41 206 0.9 0.9 0.00 0.00 0.00 67 1015.4
20260503014255 40 206 0.0 0.0 0.00 0.00 0.00 66 1015.4
20260503013752 40 206 0.0 0.0 0.00 0.00 0.00 69 1015.3
20260503013250 40 206 0.0 0.0 0.00 0.00 0.00 68 1015.2
20260503012747 40 206 0.0 0.0 0.00 0.00 0.00 70 1015.2
20260503012244 40 206 0.0 0.0 0.00 0.00 0.00 70 1015.2
20260503011741 40 206 0.0 0.0 0.00 0.00 0.00 68 1015.3
20260503011238 40 206 0.0 0.0 0.00 0.00 0.00 68 1015.1
20260503010734 40 206 0.0 0.0 0.00 0.00 0.00 68 1015.3
20260503010231 41 206 0.0 0.0 0.00 0.00 0.00 67 1015.2
20260503005728 41 206 0.0 0.0 0.00 0.00 0.00 66 1015.1
20260503005226 41 206 0.0 0.0 0.00 0.00 0.00 65 1015.2